Location: Recife
(8.0585°S, 34.8848°W)
Time: 00:39:41
(UTC-03:00)

A-11 Canister half - Pass Details

Date: 15 April 2026
Orbit: 1515 x 1684 km, 47.2° (Epoch: 11 May)

Event Time Altitude Azimuth Distance (km) Brightness Sun altitude
Exits shadow 02:05:52 21° 26° (NNE) 2,908 10.6 -48.9°
Drops below altitude 10° 02:08:19 10° 30° (NNE) 3,664 11.2 -48.3°
Sets 02:11:22 0° 33° (NNE) 4,650 11.9 -47.6°
